Theta_e
351 351 351 352 353 353 353 354 353 353 352 352 353 354 355 355 355 354 354 354 353 353 352 352 352 351 350 350 349 348 345 341 337 335 335 335 333 332 331 334 336 337 340 340 339 338 337 340 342 341 341 341 340 340 341 343 345 345 345 344 344 342 341
350 350 352 352 353 354 354 354 353 353 352 352 353 354 355 355 355 355 355 354 353 352 352 351 351 351 350 348 348 348 345 341 338 337 336 334 333 332 331 333 335 336 338 339 338 337 336 337 339 340 342 343 341 340 339 342 345 346 346 346 345 343 341
351 351 352 352 354 354 353 353 353 352 353 352 353 354 355 355 355 355 355 354 354 352 352 352 351 350 349 348 347 346 343 341 339 337 336 335 333 333 333 332 334 335 338 338 337 337 336 335 335 337 340 342 341 341 340 340 343 345 345 346 346 344 343
351 352 352 352 352 352 352 352 352 351 351 351 353 354 355 355 355 356 355 355 355 353 353 352 351 350 349 348 346 344 341 340 338 336 335 334 334 334 334 333 333 334 336 337 336 336 335 335 335 336 338 341 341 341 340 339 341 342 344 345 346 345 343
351 352 352 351 352 351 352 352 351 351 351 351 351 353 354 355 355 356 356 355 355 354 353 352 351 351 350 348 345 342 340 337 337 335 335 335 335 334 334 332 331 332 333 334 334 335 336 336 336 336 337 339 340 339 339 339 339 340 340 342 344 344 343
350 351 350 351 351 351 352 352 351 351 351 351 352 353 353 354 355 356 356 356 356 356 354 353 352 352 351 349 346 342 340 338 337 336 336 335 335 335 334 334 333 332 332 333 335 335 336 338 338 339 338 338 338 339 338 337 338 340 339 339 340 341 341
349 350 350 351 351 351 351 352 352 352 352 353 353 353 354 354 355 357 357 357 357 356 355 355 353 352 351 349 346 343 340 338 338 337 337 336 335 335 334 334 335 334 333 333 334 335 336 338 339 341 341 341 339 339 339 337 336 337 339 339 339 340 341
348 348 349 350 351 350 351 352 352 352 352 353 353 353 353 353 355 357 358 358 358 358 357 356 354 353 351 349 347 343 339 338 337 338 337 336 335 334 333 334 334 334 333 334 333 334 335 337 339 340 343 344 343 342 341 339 338 336 337 339 340 341 342
347 347 348 349 349 350 350 350 352 352 352 352 352 353 353 354 356 357 359 360 358 359 358 357 355 353 352 351 349 345 341 339 338 337 337 336 335 334 333 333 333 334 334 333 333 333 335 336 338 339 340 344 346 345 343 342 340 339 339 338 339 340 340
346 347 347 348 349 350 348 348 350 351 352 352 353 355 355 356 358 359 361 361 360 360 359 358 357 355 353 352 351 350 347 345 342 340 339 338 335 335 334 333 334 334 334 334 334 335 335 336 338 341 341 342 344 346 346 343 341 341 341 339 339 340 339
345 346 348 348 348 349 349 349 349 350 351 352 353 356 357 358 360 361 362 362 361 361 360 359 358 356 354 352 351 351 350 348 347 345 343 340 337 336 334 334 334 335 335 335 336 336 335 336 338 341 343 342 341 342 343 343 341 341 340 340 339 339 339
343 344 346 347 347 349 349 349 349 349 349 350 352 354 356 359 361 362 362 363 362 363 362 361 360 359 357 354 352 350 350 348 347 347 345 343 340 338 336 336 336 336 335 336 336 336 336 337 338 339 340 341 341 340 339 340 341 341 340 339 339 339 339
343 344 345 345 345 346 348 349 349 348 349 350 351 353 355 358 361 362 362 363 363 363 363 364 362 361 360 358 355 351 350 347 346 345 344 343 342 340 339 338 337 337 337 336 337 337 338 338 339 339 338 339 340 340 340 338 340 341 341 341 340 339 338
344 345 346 346 345 346 347 349 350 350 350 352 355 357 359 360 363 363 364 364 363 363 364 365 365 364 362 361 358 354 350 347 344 343 343 343 342 341 341 339 339 339 337 337 338 338 339 339 339 338 338 338 340 340 340 340 340 341 342 342 343 342 340
347 345 347 347 347 347 348 348 351 352 354 356 358 362 363 363 365 365 364 364 364 363 365 366 366 366 365 364 361 357 353 349 346 344 344 344 344 343 341 340 340 340 339 338 338 338 339 340 339 339 340 341 341 341 341 343 341 340 340 340 341 342 341
345 344 346 349 348 348 349 349 351 353 357 359 361 362 365 365 366 366 365 365 364 364 365 366 366 367 367 366 364 361 357 353 349 348 346 345 345 343 342 341 341 342 343 341 339 337 339 340 342 341 340 341 343 342 342 344 341 339 338 338 337 338 340
344 344 347 349 348 349 350 350 350 352 354 357 361 364 365 365 366 366 365 365 365 365 364 365 366 367 367 366 365 363 361 357 352 351 349 347 345 343 342 341 342 343 344 343 341 340 340 341 343 344 343 342 343 343 344 343 342 340 338 337 336 337 339
349 348 349 350 348 348 348 347 346 347 348 349 353 358 362 365 366 366 367 365 365 365 365 365 366 366 367 366 366 364 362 360 356 353 350 348 346 343 341 341 343 343 344 344 344 343 343 343 344 346 347 346 344 345 345 344 342 341 340 338 336 337 337
352 351 351 349 348 348 349 347 345 346 346 346 348 351 357 362 366 366 366 366 366 366 365 365 366 366 366 366 365 365 364 362 360 356 352 349 346 343 342 342 343 343 344 343 344 345 345 345 345 347 349 351 350 349 346 345 343 343 343 340 339 339 338
349 349 348 348 347 348 349 349 349 350 351 352 354 354 356 361 363 365 366 365 366 366 365 366 365 365 366 366 365 365 363 362 362 359 356 351 347 345 344 343 341 342 342 343 345 347 348 347 348 348 350 352 353 352 350 346 344 344 344 343 342 341 341
343 346 348 350 351 351 353 352 352 353 356 359 361 363 364 364 363 363 365 365 366 366 365 366 365 365 365 365 365 365 363 363 362 361 358 356 351 349 346 343 341 341 342 343 345 345 347 347 348 349 349 352 354 354 354 350 346 344 344 344 344 345 346
336 339 341 343 344 344 346 346 344 347 349 351 356 359 361 363 365 363 364 364 365 365 366 365 365 365 364 364 364 365 364 363 361 360 359 357 354 352 348 345 342 340 341 343 344 345 346 347 349 348 349 350 351 354 354 352 350 349 347 346 346 348 350
331 335 337 338 341 344 344 345 350 351 352 351 354 356 355 357 358 361 363 363 363 364 365 365 365 364 364 364 364 364 363 363 361 360 360 358 356 354 350 347 343 342 342 343 344 345 345 345 346 347 347 348 348 350 350 350 350 351 352 352 353 353 355
336 339 341 342 346 350 351 352 356 359 358 357 357 359 360 358 356 354 356 361 363 363 362 363 363 363 363 364 364 364 363 363 361 361 360 358 357 355 352 349 347 344 344 345 344 343 343 343 345 346 347 347 346 346 346 347 348 351 354 355 357 359 360
355 358 359 356 355 356 355 357 356 352 348 343 343 351 358 361 359 356 352 352 357 361 362 362 362 362 362 362 363 364 364 363 362 361 360 359 358 357 355 353 350 349 347 346 346 346 345 346 348 348 347 347 347 347 349 351 351 354 356 357 359 360 361
357 357 356 353 349 346 345 344 343 342 337 331 328 334 347 357 361 360 357 352 352 355 358 359 360 361 361 361 361 363 363 363 363 362 361 361 359 359 358 357 355 354 352 351 349 349 349 350 351 351 351 350 351 352 353 354 355 356 358 359 360 360 361
355 351 346 343 343 348 352 347 345 348 347 344 337 329 334 348 357 360 361 358 354 353 351 352 357 360 360 360 360 362 363 364 364 362 362 361 360 360 360 360 359 359 358 356 353 352 352 352 352 354 355 356 355 356 356 357 357 358 359 360 360 361 361
362 359 356 351 350 356 360 354 347 346 346 349 353 347 336 338 347 354 358 359 359 357 354 352 354 356 358 360 360 360 363 363 364 364 363 363 363 363 363 363 363 363 362 361 359 357 356 356 355 357 358 359 360 360 360 361 361 361 361 362 362 362 362
363 363 361 357 352 352 351 345 338 336 336 342 353 358 352 341 338 344 350 354 357 359 358 356 355 356 357 359 359 360 362 363 364 364 365 365 365 364 365 366 366 366 365 364 363 362 361 361 360 360 360 361 362 363 364 364 364 365 364 364 364 364 364
362 362 360 358 353 350 346 343 338 336 338 341 346 352 352 348 342 342 347 351 353 357 359 358 357 357 358 358 359 359 361 362 364 364 364 365 365 365 366 366 367 367 367 366 365 364 364 363 363 362 362 362 362 363 364 365 365 365 366 366 366 366 366
359 360 360 359 355 352 349 350 349 349 350 351 353 354 351 350 350 352 354 352 352 356 360 360 358 358 358 358 358 358 360 361 363 364 364 365 366 366 366 366 367 368 367 367 366 366 365 365 365 364 365 364 363 363 363 364 364 364 365 364 365 364 365
355 357 358 358 356 354 352 353 357 359 358 359 363 365 361 357 358 361 360 357 355 358 360 361 359 359 359 359 358 358 359 360 362 363 365 365 366 366 366 366 367 367 367 367 367 367 367 367 366 366 366 366 365 364 364 364 364 364 363 363 362 362 362
353 353 354 356 354 353 352 354 358 361 358 359 364 368 368 365 364 363 362 361 360 361 361 361 360 359 359 360 359 359 360 362 363 364 365 367 367 367 367 367 368 367 368 368 368 367 368 367 367 367 367 366 366 365 365 365 364 363 362 362 362 362 362
351 351 351 353 354 353 355 357 358 359 357 358 362 367 368 367 367 365 364 363 362 361 361 361 360 360 360 360 361 361 362 364 365 367 368 369 369 368 368 369 368 368 368 368 368 368 368 367 368 368 367 367 367 366 366 365 364 363 362 362 362 362 362
351 350 349 350 351 354 357 358 358 357 356 356 359 363 364 366 366 366 366 365 363 362 362 361 362 363 362 362 362 362 363 364 366 368 368 369 369 369 369 370 369 368 368 367 368 368 367 367 367 367 367 366 365 365 365 364 363 362 361 361 360 360 360
350 350 350 350 352 354 357 356 355 355 355 355 356 359 362 363 364 365 365 364 364 364 363 364 365 365 364 364 363 363 362 365 367 368 368 368 368 368 369 369 369 368 368 367 367 367 367 367 366 366 366 366 364 363 363 363 362 361 360 358 356 354 353
349 350 351 351 353 355 355 354 353 353 352 352 354 357 360 361 361 363 363 362 362 364 365 366 366 365 365 366 365 365 365 366 366 366 367 367 367 367 368 368 368 368 367 367 367 366 366 366 365 364 363 363 362 362 361 361 360 358 356 353 348 344 341
348 349 350 352 353 354 354 353 352 350 349 350 353 356 357 358 360 363 363 363 363 364 365 365 364 364 365 365 366 366 367 366 366 366 367 367 367 367 367 367 365 364 364 364 363 364 364 364 363 362 361 361 361 360 359 357 354 350 346 341 337 333 332
Wind_Speed
42 42 43 43 44 44 46 49 49 48 48 46 47 47 46 45 46 47 48 48 48 48 48 48 48 48 47 46 44 42 40 38 36 37 37 36 36 35 33 31 31 29 29 28 27 25 23 20 19 18 18 18 19 20 19 19 18 18 17 16 16 15 14
42 42 43 44 45 46 46 48 48 48 48 47 48 48 47 46 47 48 48 48 49 48 48 49 49 50 49 48 46 44 42 39 38 37 36 36 36 35 33 31 30 30 30 28 27 25 24 22 20 19 18 18 19 20 21 20 19 19 18 18 18 17 15
43 42 44 46 46 48 48 48 48 49 49 48 49 49 49 49 48 48 48 48 48 48 48 49 49 50 49 48 47 45 43 41 39 39 38 36 35 35 33 31 30 30 30 30 29 27 26 24 22 21 20 19 19 20 21 21 21 20 19 19 19 19 17
42 44 46 46 46 47 48 49 50 50 50 51 51 52 52 50 48 47 47 47 48 48 49 50 50 50 50 49 47 45 43 42 40 39 38 37 36 35 34 33 32 32 32 31 30 29 28 27 25 23 22 21 20 20 20 21 22 22 21 20 20 20 18
41 43 44 43 43 45 45 47 49 50 51 52 53 53 52 49 47 46 47 47 47 47 48 49 50 50 50 49 48 46 43 41 40 39 38 37 37 36 36 35 34 33 33 32 31 30 29 28 26 25 24 24 23 21 20 21 22 23 23 22 22 21 20
40 40 41 42 44 45 46 46 47 49 50 51 52 51 50 48 46 46 48 47 47 46 46 48 50 50 50 50 48 46 44 42 41 40 39 38 38 37 37 37 35 34 33 31 31 30 29 27 26 26 26 26 25 24 23 22 22 23 24 24 24 23 22
41 40 41 44 45 46 46 46 47 49 49 49 48 48 48 47 46 46 47 48 47 47 47 48 50 51 51 50 49 48 45 44 42 41 40 39 38 38 38 37 37 35 33 31 30 30 29 28 26 25 25 26 26 26 25 24 23 22 23 24 24 24 24
43 42 43 45 45 46 47 47 48 48 48 47 45 46 47 47 47 47 48 49 48 47 48 49 50 52 53 52 51 49 47 45 43 42 41 40 39 38 38 37 37 35 34 33 31 31 30 30 29 27 26 26 26 26 26 26 25 24 24 24 25 25 24
44 44 45 46 45 46 47 47 46 45 46 45 45 46 47 47 47 49 49 48 48 48 48 49 50 51 52 52 52 51 48 46 45 44 43 42 40 39 38 38 37 36 36 34 33 32 31 31 31 30 29 28 28 27 27 27 26 27 26 25 26 26 26
43 43 44 45 46 45 45 45 43 43 44 45 45 45 46 48 47 47 47 47 48 49 49 49 50 51 52 53 52 51 50 49 47 46 45 44 42 41 39 38 38 37 37 36 35 33 33 32 32 32 31 31 31 30 30 29 28 28 28 27 27 27 27
43 45 46 45 44 42 42 43 43 44 45 46 47 47 47 48 47 46 46 47 47 48 49 50 50 50 52 53 53 52 51 50 49 48 48 47 45 43 41 40 39 38 37 37 36 35 34 33 32 33 33 33 33 32 32 32 31 30 29 29 28 27 27
44 45 48 47 43 40 40 42 44 46 48 49 50 48 47 47 47 47 46 46 46 46 47 49 49 50 51 52 53 53 52 52 51 50 49 48 47 44 43 41 40 39 38 38 37 37 36 35 34 34 34 34 34 34 33 34 33 32 31 30 30 29 29
44 43 47 49 44 43 42 42 44 47 48 49 49 48 47 48 48 47 46 45 45 44 45 46 47 49 50 52 53 53 54 53 52 51 50 49 48 46 44 43 42 40 39 38 38 38 37 37 36 35 35 34 34 35 34 34 34 34 33 32 32 32 31
40 40 44 48 48 48 46 45 45 45 45 45 45 44 45 47 47 46 46 45 45 44 44 44 45 47 49 51 52 54 55 54 52 52 51 49 48 47 45 44 43 42 41 39 39 39 39 38 37 37 36 36 35 35 35 35 35 35 35 34 34 34 34
38 37 40 44 48 50 49 47 46 45 45 45 45 44 44 45 46 46 45 45 45 44 44 43 44 45 47 49 51 53 54 53 52 52 51 49 48 48 47 46 44 43 42 41 40 40 40 40 39 38 38 37 37 36 36 37 37 36 36 36 36 36 36
39 38 36 39 45 49 50 50 48 47 47 46 46 46 45 45 46 47 46 45 45 44 44 43 44 45 46 48 49 50 51 52 52 52 51 50 49 48 47 46 45 44 43 42 42 41 40 40 40 40 40 39 39 38 38 39 39 38 37 36 36 37 38
32 32 32 35 42 46 48 48 47 47 47 46 46 47 46 46 46 47 47 46 45 45 44 44 44 45 46 48 48 49 49 50 51 51 51 51 49 48 47 45 45 44 43 43 42 42 41 40 40 41 41 40 40 40 40 40 40 39 38 37 37 38 39
25 24 26 33 38 40 43 44 43 43 44 45 47 47 47 46 45 45 46 46 45 45 44 44 45 45 47 48 48 48 48 48 49 50 51 51 50 49 47 45 45 44 44 44 43 42 41 41 40 40 40 40 40 39 40 40 40 40 39 38 38 38 39
28 26 25 28 30 32 35 37 38 39 40 43 44 45 46 46 44 44 45 45 44 43 43 44 45 45 46 47 47 47 47 47 47 47 49 49 49 49 47 46 46 45 45 44 43 42 42 42 41 39 39 39 39 39 39 38 38 38 38 38 38 38 38
24 26 27 29 30 29 30 29 29 30 33 36 39 40 42 43 43 43 42 42 42 42 43 44 45 45 46 47 48 48 47 46 46 46 46 46 46 48 48 47 46 45 45 44 44 43 43 42 42 41 40 40 40 40 39 38 37 37 37 37 37 37 37
14 16 22 29 30 28 26 24 22 22 25 29 32 34 36 38 39 39 38 39 41 41 42 43 44 45 45 46 48 48 47 46 46 45 44 44 45 46 47 47 46 45 45 44 44 44 44 43 43 42 42 41 41 41 41 40 38 37 37 37 36 36 36
10 10 15 21 24 24 23 23 21 19 20 22 23 26 29 32 34 36 36 37 39 40 41 42 44 45 45 45 47 48 48 47 46 45 44 43 44 45 46 46 46 44 44 44 44 44 44 44 44 44 43 43 42 43 43 43 42 40 39 38 37 36 36
3 9 15 15 16 18 21 24 22 19 17 17 15 16 19 23 28 32 34 34 36 39 41 41 43 45 45 45 45 47 48 47 46 45 44 44 44 44 45 45 45 44 44 44 45 45 45 45 45 44 44 44 44 44 45 44 43 43 42 41 39 37 37
6 10 20 19 18 19 21 23 21 19 18 16 15 15 15 16 20 25 30 34 35 37 39 41 42 44 45 44 43 44 46 48 46 45 44 44 44 44 44 44 44 44 44 44 45 45 45 45 45 45 45 45 45 45 45 45 44 43 43 42 40 37 36
18 21 24 23 24 25 24 24 23 20 18 16 16 18 18 19 19 21 25 30 34 37 39 41 42 42 44 44 41 40 43 45 46 46 45 44 44 43 43 43 43 43 44 44 45 45 45 45 45 45 46 46 46 46 46 45 44 43 43 42 39 37 36
23 22 20 18 17 16 15 16 16 14 13 11 12 17 20 21 22 24 25 25 29 34 38 40 41 40 41 42 40 38 39 42 45 45 45 44 43 42 42 42 41 42 42 43 44 44 44 44 44 44 44 44 45 45 45 45 44 42 41 39 38 37 36
18 16 15 15 14 11 9 9 9 9 9 9 10 15 20 22 22 24 27 28 28 30 31 34 38 38 39 40 39 37 37 39 42 43 44 43 42 41 41 41 40 39 40 41 42 42 43 43 43 43 42 41 41 41 41 41 41 40 39 37 36 36 37
18 16 15 15 13 10 7 6 7 7 7 8 9 12 17 23 25 23 24 28 31 31 28 27 31 35 37 38 38 37 35 36 39 41 41 41 40 40 40 39 37 37 37 38 39 40 41 41 41 41 40 38 36 36 35 35 35 35 34 33 33 33 33
15 12 11 11 9 7 6 5 4 3 2 5 9 11 13 19 25 25 24 26 29 30 29 27 27 30 33 35 36 36 34 34 36 38 39 39 39 38 37 36 35 35 35 36 37 38 39 39 38 39 39 37 34 30 27 26 25 25 26 26 26 25 26
14 12 10 9 10 9 9 8 7 6 4 5 8 11 11 14 20 23 24 26 25 25 27 29 28 28 31 33 34 35 34 33 34 35 36 37 37 36 35 33 33 33 33 33 34 35 36 36 35 35 35 35 33 28 22 18 18 20 21 22 23 23 23
14 12 10 9 10 9 8 7 9 7 2 3 6 7 8 13 17 18 20 23 23 21 24 29 29 28 28 29 32 34 34 33 32 33 34 35 34 33 32 31 31 31 32 32 32 33 33 32 31 30 29 29 29 27 23 20 21 22 23 23 23 22 21
10 9 8 9 9 9 8 7 7 5 1 3 4 3 4 9 13 14 16 19 19 18 21 27 29 27 25 26 29 32 32 32 31 32 32 31 30 29 29 29 29 29 30 31 31 30 30 29 28 26 24 23 22 22 22 23 25 25 25 25 25 24 23
10 8 9 10 10 9 6 5 3 1 2 3 4 4 3 6 10 12 14 16 16 17 21 25 26 24 22 24 28 30 30 30 29 29 28 26 25 26 27 27 27 27 29 30 30 29 28 27 26 23 22 21 20 21 23 26 26 25 24 24 24 24 23
12 11 11 11 11 9 5 2 1 2 3 3 4 4 3 6 10 12 13 14 16 19 20 21 22 21 21 24 27 28 28 27 25 25 24 24 24 24 25 25 26 27 28 28 28 27 26 26 24 22 21 21 22 24 26 26 26 24 23 21 21 20 20
16 15 14 13 11 8 4 2 3 4 4 3 4 4 3 6 9 11 13 15 16 18 19 19 19 19 21 24 25 26 26 24 23 24 24 25 25 25 25 25 26 27 27 27 26 26 25 25 25 24 23 22 22 23 24 23 22 20 19 17 16 16 17
17 14 13 12 10 5 4 4 5 5 4 4 5 4 3 5 7 10 13 15 15 16 17 18 19 20 21 22 22 23 24 24 25 25 25 26 26 26 26 26 25 25 26 25 24 23 22 23 24 23 22 22 21 19 19 19 18 16 15 14 14 14 15
15 12 11 10 8 5 5 6 5 5 5 5 5 5 4 5 6 9 12 15 15 15 17 19 20 21 21 21 22 22 23 26 27 27 27 27 27 26 26 26 24 24 24 23 22 22 22 22 22 21 20 21 20 19 17 16 15 14 13 13 13 14 15
14 14 11 9 7 6 5 5 4 4 5 5 6 6 6 6 7 8 12 15 15 15 17 20 21 22 22 22 23 23 25 26 28 28 28 27 26 25 26 26 24 22 21 20 19 20 20 19 19 19 18 17 16 15 14 13 12 12 11 11 11 12 13
Wind_Direction
182 186 187 187 185 187 191 192 190 191 194 196 196 196 198 199 200 202 204 205 207 208 210 209 208 210 211 214 216 218 217 214 212 214 215 215 215 216 215 211 209 208 208 213 218 221 222 219 215 214 215 215 214 214 214 215 215 214 220 226 227 228 231
183 185 185 186 186 188 191 191 191 191 194 197 197 197 198 199 200 202 204 206 208 209 210 210 210 211 212 214 216 217 218 215 213 213 214 214 213 214 216 214 211 210 212 217 221 223 225 224 221 220 220 218 216 215 216 217 217 216 218 224 230 232 231
182 182 183 185 187 190 193 193 192 193 195 197 197 198 200 201 202 203 205 207 208 209 210 211 212 212 213 214 215 217 218 217 215 215 215 215 213 214 216 216 214 214 214 217 221 224 227 228 227 225 225 224 222 220 219 218 218 218 220 223 230 235 236
180 182 183 185 188 192 193 194 195 195 197 198 200 201 201 202 202 204 207 208 208 209 211 212 213 214 213 214 215 217 218 217 216 217 217 217 215 214 215 217 217 216 216 218 221 224 227 229 229 227 227 228 227 225 223 221 220 220 221 223 228 235 238
180 183 184 184 188 191 192 194 196 197 199 201 202 203 202 202 203 205 208 210 211 213 214 214 214 214 214 214 216 217 218 218 218 218 218 217 216 215 216 218 219 218 219 220 222 224 226 227 228 227 228 230 231 230 228 227 224 222 223 223 226 233 238
181 182 182 184 188 192 192 193 196 197 199 201 202 202 201 202 204 206 208 210 213 214 215 215 214 215 215 215 217 218 219 219 219 219 219 218 217 216 217 218 219 220 220 220 222 224 224 225 226 226 227 229 231 232 232 230 228 227 226 225 226 231 236
181 180 182 186 190 193 193 194 196 198 199 199 200 200 201 203 204 206 208 210 212 213 214 214 215 216 216 217 218 219 219 220 220 220 219 219 218 218 218 218 219 222 222 222 222 223 224 225 226 227 227 227 230 232 232 231 231 232 230 228 228 230 234
179 180 184 187 190 192 193 195 197 198 198 197 198 201 202 204 204 206 208 210 212 213 214 215 216 217 217 217 218 219 221 222 221 220 220 220 220 220 220 219 220 222 223 224 224 224 224 225 227 230 229 228 230 232 233 234 233 234 233 231 230 231 233
177 181 185 188 191 192 193 195 196 197 197 197 198 201 202 202 203 205 208 210 211 213 216 217 218 218 217 217 218 220 221 222 222 221 220 221 221 222 222 222 221 222 223 224 226 226 226 225 226 229 231 231 232 233 234 236 236 236 235 234 233 234 235
178 183 187 188 191 193 194 195 195 195 197 196 196 199 200 200 202 205 207 209 211 214 217 218 218 218 218 218 219 220 220 221 221 221 220 221 222 223 223 223 222 222 223 225 226 227 228 228 226 227 229 232 233 234 235 236 238 238 238 238 238 239 238
179 183 188 189 190 191 193 196 196 197 198 197 196 197 199 200 201 204 207 209 212 215 217 217 218 218 218 219 219 219 220 220 221 221 220 221 222 223 224 223 223 223 224 224 225 227 229 229 228 227 228 230 233 235 236 237 238 239 240 241 242 242 242
179 183 185 186 187 188 192 196 198 200 202 201 199 199 199 201 202 204 206 209 212 214 216 217 217 218 218 219 219 219 220 221 221 221 222 222 222 223 224 223 224 225 224 224 225 227 229 229 230 229 229 231 233 235 237 239 240 240 242 243 243 244 245
182 185 185 184 184 187 191 194 196 200 202 203 202 202 203 203 203 204 205 208 210 213 215 216 217 217 218 219 219 220 220 221 222 223 223 224 223 224 224 224 224 225 226 226 226 227 228 229 230 232 233 233 234 235 237 239 240 241 242 243 244 245 246
183 184 184 183 184 189 192 192 194 197 200 201 201 202 203 204 204 204 205 207 209 211 214 215 216 217 218 219 219 220 221 222 223 224 224 225 224 224 224 224 224 225 227 228 228 227 228 229 231 233 235 235 236 237 238 239 240 241 241 242 243 244 246
182 180 180 180 184 189 191 191 192 196 198 200 199 200 202 204 204 204 205 206 208 209 212 214 216 216 217 218 220 221 222 222 223 224 224 224 224 224 225 225 225 225 227 228 230 231 230 230 232 234 235 236 237 238 238 239 240 241 242 242 243 243 246
178 177 177 177 180 184 187 189 191 194 196 198 198 200 202 204 204 204 205 206 207 209 211 213 215 216 217 218 220 221 222 222 223 223 223 223 224 225 226 226 226 226 226 228 231 233 233 232 231 232 234 236 237 238 239 239 241 243 244 244 244 245 245
172 173 173 174 177 180 183 187 191 194 196 198 200 201 203 205 205 205 205 206 207 208 210 212 215 216 217 218 220 221 222 222 222 222 222 223 224 226 227 227 226 226 226 228 230 233 234 234 232 231 232 235 237 238 239 241 242 244 245 246 246 246 245
153 159 165 170 174 178 183 188 192 196 197 199 201 202 204 205 205 204 205 207 207 209 210 212 215 216 217 218 220 221 222 223 223 223 223 223 223 225 227 227 226 227 227 227 229 231 233 234 235 233 231 233 236 238 241 243 245 245 246 246 247 247 246
147 152 161 171 176 179 185 192 197 200 200 198 200 203 205 205 205 206 207 208 208 209 210 212 214 217 218 218 219 222 223 223 224 223 223 224 224 225 226 226 226 226 227 228 228 229 231 233 235 234 233 232 234 237 242 245 246 246 247 247 248 248 247
147 155 164 175 182 183 184 189 194 199 201 201 203 205 205 205 207 209 210 209 209 210 211 213 214 217 219 219 219 222 223 224 225 225 224 225 224 224 224 226 227 227 227 228 227 227 229 231 233 235 235 234 235 238 242 246 248 249 249 249 249 249 249
119 141 161 171 176 177 179 182 185 189 196 202 205 205 204 205 208 210 211 210 210 211 213 214 215 217 220 220 220 221 223 224 226 227 227 226 224 224 224 226 227 227 227 226 226 227 229 230 232 234 236 237 237 238 241 245 248 250 251 251 252 251 251
105 117 147 162 166 169 174 176 177 178 183 190 196 199 203 207 209 211 212 212 213 214 214 215 216 219 221 221 221 220 221 224 226 227 228 227 225 224 224 225 227 227 227 226 226 228 229 230 231 233 236 238 239 240 242 245 248 249 249 251 252 253 253
102 132 145 161 175 180 178 174 171 168 168 174 184 194 202 207 210 213 214 215 214 214 215 216 217 219 221 222 222 221 220 222 225 227 228 228 227 227 226 226 226 227 227 226 225 226 228 230 232 233 235 238 239 241 243 245 248 248 249 250 250 250 251
48 131 150 161 171 173 175 175 173 168 168 176 188 198 207 211 213 214 216 217 217 216 216 217 218 220 222 223 224 223 221 222 224 226 227 228 229 230 229 228 227 227 227 226 226 227 229 230 232 233 235 237 240 242 244 246 247 248 249 250 249 249 251
92 119 138 147 149 150 156 165 169 171 175 181 187 192 201 211 215 217 216 217 219 219 219 219 219 220 222 224 225 225 223 222 223 225 227 228 230 232 232 231 229 228 228 228 228 228 228 229 231 232 235 237 239 242 243 245 247 247 248 249 250 251 253
94 107 115 120 128 133 143 156 164 174 183 191 191 188 193 201 209 216 219 219 218 220 222 222 222 222 223 225 226 226 224 223 223 224 226 228 230 231 232 232 231 229 229 229 230 230 229 229 231 233 236 238 239 241 242 244 246 248 249 250 250 251 254
72 81 89 93 99 103 114 132 145 160 177 195 203 197 195 197 202 210 217 220 221 223 224 223 222 223 224 225 226 226 225 224 223 224 225 227 229 230 230 231 231 231 231 231 231 232 232 231 231 233 236 239 240 242 244 245 247 249 250 252 254 254 256
68 71 75 76 81 89 95 109 122 141 177 202 209 206 201 201 203 207 213 220 226 230 229 225 222 223 224 225 226 226 225 224 223 224 224 225 227 228 228 230 232 232 233 232 232 233 233 233 233 233 234 238 241 244 247 248 250 252 253 255 257 257 257
74 71 63 48 44 43 17 2 30 42 275 235 226 224 215 208 209 212 215 220 227 231 230 227 224 222 222 224 225 226 225 223 222 223 223 224 225 227 229 230 232 232 233 233 233 233 234 235 235 234 234 235 238 243 249 251 253 255 256 258 259 259 258
63 58 47 26 20 17 357 344 348 345 318 280 256 245 236 222 217 218 222 225 227 228 227 226 224 222 222 223 224 225 225 223 222 222 224 224 225 227 228 230 232 233 233 233 233 234 235 235 236 236 235 235 236 238 241 245 247 248 250 253 254 255 256
59 57 46 33 31 24 13 4 0 358 337 267 259 252 241 226 220 222 228 229 229 227 222 221 221 219 220 222 222 223 223 222 222 223 224 224 224 226 228 230 231 232 232 232 232 232 233 233 233 234 234 234 234 234 234 237 240 241 241 242 244 247 248
49 42 23 19 21 17 20 27 21 15 339 241 225 222 229 216 212 220 226 226 226 221 216 216 217 216 217 218 219 221 220 219 219 220 221 223 224 227 230 231 230 230 230 230 230 229 230 230 229 229 229 230 231 230 229 231 235 237 238 240 244 247 248
29 16 3 3 4 1 5 26 41 13 285 254 201 180 183 192 199 209 211 210 208 204 204 209 211 210 211 212 213 215 215 214 214 214 216 220 223 226 229 229 229 229 227 227 226 225 225 225 224 223 223 222 222 221 222 226 231 236 239 241 243 246 249
8 360 356 354 354 354 351 351 234 243 267 251 207 187 166 176 188 193 192 194 196 197 198 202 204 205 205 205 207 207 206 207 208 208 208 211 214 218 220 222 225 224 223 222 222 221 220 218 217 217 215 214 214 217 221 226 231 235 238 240 242 247 252
350 348 347 342 340 341 332 279 252 259 267 253 228 209 173 179 190 188 186 188 191 194 196 195 194 195 196 196 199 200 201 202 203 202 202 203 205 208 209 210 214 217 218 218 217 216 216 215 213 213 212 210 211 215 219 220 222 227 231 235 241 249 255
340 338 336 332 326 314 286 270 270 273 275 269 255 232 198 194 197 193 191 190 189 192 194 190 187 187 188 190 193 195 198 199 199 199 200 201 202 202 201 200 203 208 212 214 212 211 212 213 214 214 214 212 208 207 210 214 216 223 233 241 250 260 267
329 329 325 317 305 285 272 271 275 288 298 283 251 225 210 202 195 194 198 197 193 191 190 188 185 183 184 187 189 191 194 197 198 198 198 197 198 199 197 194 192 194 199 201 201 203 206 208 207 204 204 206 206 204 207 216 224 234 245 256 267 276 281
311 313 308 299 286 272 261 264 278 301 299 265 223 203 200 199 193 191 193 192 189 186 186 186 184 182 182 185 187 189 191 194 194 194 193 193 194 196 197 194 188 181 180 181 183 189 194 197 198 195 194 199 207 212 218 227 236 246 257 267 276 284 289